| time (UTC) | temp F | wind direction | speed MPH | gust MPH | rain 1hr in | rain 24hr in | rain mn in | humidity % | barometer mb |
| 20260903154548 | 99 | 170 | 0.0 | 2.0 | 0.00 | 0.00 | 0.00 | 53 | 1010.5 |
| 20260903153045 | 99 | 168 | 0.0 | 2.0 | 0.00 | 0.00 | 0.00 | 55 | 1010.7 |
| 20260903151544 | 98 | 173 | 0.0 | 1.0 | 0.00 | 0.00 | 0.00 | 57 | 1010.6 |
| 20260903150039 | 96 | 117 | 0.0 | 1.0 | 0.00 | 0.00 | 0.00 | 58 | 1010.6 |
| 20260903144540 | 96 | 145 | 0.0 | 0.0 | 0.00 | 0.00 | 0.00 | 57 | 1010.5 |
| 20260903143034 | 95 | 84 | 0.0 | 0.0 | 0.00 | 0.00 | 0.00 | 59 | 1010.5 |
| 20260903141530 | 94 | 79 | 0.0 | 0.0 | 0.00 | 0.00 | 0.00 | 62 | 1010.6 |
| 20260903140012 | 92 | 80 | 0.0 | 0.0 | 0.00 | 0.00 | 0.00 | 64 | 1010.6 |
| 20260903134508 | 90 | 79 | 0.0 | 0.0 | 0.00 | 0.00 | 0.00 | 67 | 1010.8 |
| 20260903133050 | 89 | 77 | 0.0 | 0.0 | 0.00 | 0.00 | 0.00 | 70 | 1010.9 |
| 20260903131540 | 86 | 79 | 0.0 | 0.0 | 0.00 | 0.00 | 0.00 | 73 | 1011.2 |
| 20260903130018 | 84 | 79 | 0.0 | 0.0 | 0.00 | 0.00 | 0.00 | 77 | 1011.3 |
| 20260903124514 | 81 | 79 | 0.0 | 0.0 | 0.00 | 0.00 | 0.00 | 83 | 1011.3 |
| 20260903123053 | 78 | 79 | 0.0 | 0.0 | 0.00 | 0.00 | 0.00 | 86 | 1011.3 |
| 20260903121555 | 75 | 79 | 0.0 | 0.0 | 0.00 | 0.00 | 0.00 | 86 | 1011.4 |
| 20260903120044 | 72 | 77 | 0.0 | 0.0 | 0.00 | 0.00 | 0.00 | 87 | 1011.3 |
| 20260903114532 | 0 | 0.0 | 0.0 | 0.00 | 0.00 | 0.00 | 1011.2 | ||
| 20260903113010 | 0 | 0.0 | 0.0 | 0.00 | 0.00 | 0.00 | 1011.1 | ||
| 20260903111505 | 0 | 0.0 | 0.0 | 0.00 | 0.00 | 0.00 | 1010.9 | ||
| 20260903110059 | 0 | 0.0 | 0.0 | 0.00 | 0.00 | 0.00 | 1010.8 | ||
| 20260903104546 | 0 | 0.0 | 0.0 | 0.00 | 0.00 | 0.00 | 1010.8 | ||
| 20260903103042 | 0 | 0.0 | 0.0 | 0.00 | 0.00 | 0.00 | 1010.6 | ||
| 20260903101538 | 0 | 0.0 | 0.0 | 0.00 | 0.00 | 0.00 | 1010.5 | ||
| 20260903100035 | 0 | 0.0 | 0.0 | 0.00 | 0.00 | 0.00 | 1010.6 | ||
| 20260903094528 | 0 | 0.0 | 0.0 | 0.00 | 0.00 | 0.00 | 1010.5 | ||
| 20260903093024 | 0 | 0.0 | 0.0 | 0.00 | 0.00 | 0.00 | 1010.5 | ||
| 20260903091519 | 0 | 0.0 | 0.0 | 0.00 | 0.00 | 0.00 | 1010.4 | ||
| 20260903090016 | 0 | 0.0 | 0.0 | 0.00 | 0.00 | 0.00 | 1010.4 | ||
| 20260903084511 | 0 | 0.0 | 0.0 | 0.00 | 0.00 | 0.00 | 1010.4 | ||
| 20260903083055 | 0 | 0.0 | 0.0 | 0.00 | 0.00 | 0.00 | 1010.3 | ||
| 20260903081551 | 0 | 0.0 | 0.0 | 0.00 | 0.00 | 0.00 | 1010.3 | ||
| 20260903080046 | 0 | 0.0 | 0.0 | 0.00 | 0.00 | 0.00 | 1010.3 | ||
| 20260903074556 | 71 | 71 | 0.0 | 0.0 | 0.00 | 0.00 | 0.00 | 89 | 1010.4 |
| 20260903073048 | 71 | 70 | 0.0 | 0.0 | 0.00 | 0.00 | 0.00 | 87 | 1010.3 |
| 20260903071540 | 71 | 71 | 0.0 | 0.0 | 0.00 | 0.00 | 0.00 | 87 | 1010.2 |
| 20260903070039 | 71 | 70 | 0.0 | 0.0 | 0.00 | 0.00 | 0.00 | 87 | 1010.2 |
| 20260903064539 | 72 | 71 | 0.0 | 0.0 | 0.00 | 0.00 | 0.00 | 87 | 1010.1 |
| 20260903063037 | 72 | 70 | 0.0 | 0.0 | 0.00 | 0.00 | 0.00 | 87 | 1010.1 |
| 20260903061532 | 72 | 70 | 0.0 | 0.0 | 0.00 | 0.00 | 0.00 | 87 | 1010.1 |
| 20260903060017 | 72 | 70 | 0.0 | 0.0 | 0.00 | 0.00 | 0.00 | 87 | 1010.2 |
| 20260903054604 | 72 | 71 | 0.0 | 0.0 | 0.00 | 0.00 | 0.00 | 87 | 1010.1 |
| 20260903053059 | 72 | 71 | 0.0 | 0.0 | 0.00 | 0.00 | 0.00 | 87 | 1010.1 |
| 20260903051540 | 73 | 71 | 0.0 | 0.0 | 0.00 | 0.00 | 0.00 | 87 | 1010.0 |
| 20260903050040 | 73 | 71 | 0.0 | 0.0 | 0.00 | 0.00 | 0.00 | 87 | 1009.9 |
| 20260903044521 | 73 | 70 | 0.0 | 0.0 | 0.00 | 0.00 | 0.00 | 87 | 1009.8 |
| 20260903043019 | 73 | 71 | 0.0 | 0.0 | 0.00 | 0.00 | 0.00 | 87 | 1009.8 |
| 20260903041502 | 73 | 71 | 0.0 | 0.0 | 0.00 | 0.00 | 0.00 | 87 | 1009.7 |
| 20260903040059 | 73 | 71 | 0.0 | 0.0 | 0.00 | 0.00 | 0.00 | 87 | 1009.8 |
| 20260903034543 | 74 | 71 | 0.0 | 0.0 | 0.00 | 0.00 | 0.00 | 87 | 1009.9 |
| 20260903033040 | 74 | 69 | 0.0 | 0.0 | 0.00 | 0.00 | 0.00 | 87 | 1010.0 |
| 20260903031525 | 74 | 61 | 0.0 | 0.0 | 0.00 | 0.00 | 0.00 | 86 | 1010.1 |
| 20260903030020 | 75 | 56 | 0.0 | 0.0 | 0.00 | 0.00 | 0.00 | 86 | 1010.2 |
| 20260903024501 | 75 | 57 | 0.0 | 0.0 | 0.00 | 0.00 | 0.00 | 86 | 1010.2 |
| 20260903023059 | 75 | 56 | 0.0 | 0.0 | 0.00 | 0.00 | 0.00 | 85 | 1010.2 |
| 20260903021540 | 76 | 56 | 0.0 | 0.0 | 0.00 | 0.00 | 0.00 | 85 | 1010.3 |
| 20260903020048 | 76 | 56 | 0.0 | 0.0 | 0.00 | 0.00 | 0.00 | 85 | 1010.3 |
| 20260903014521 | 77 | 57 | 0.0 | 0.0 | 0.00 | 0.00 | 0.00 | 84 | 1010.2 |
| 20260903013016 | 77 | 56 | 0.0 | 0.0 | 0.00 | 0.00 | 0.00 | 83 | 1010.0 |
| 20260903011617 | 78 | 56 | 0.0 | 0.0 | 0.00 | 0.00 | 0.00 | 83 | 1010.0 |
| 20260903010106 | 79 | 56 | 0.0 | 0.0 | 0.00 | 0.00 | 0.00 | 82 | 1009.7 |
| 20260903004534 | 80 | 56 | 0.0 | 0.0 | 0.00 | 0.00 | 0.00 | 81 | 1009.6 |
| 20260903003032 | 80 | 57 | 0.0 | 0.0 | 0.00 | 0.00 | 0.00 | 79 | 1009.5 |
| 20260903001517 | 82 | 57 | 0.0 | 0.0 | 0.00 | 0.00 | 0.00 | 77 | 1009.4 |
| 20260903000014 | 83 | 56 | 0.0 | 0.0 | 0.00 | 0.00 | 0.00 | 74 | 1009.4 |
| 20260902234600 | 84 | 57 | 0.0 | 0.0 | 0.00 | 0.00 | 0.00 | 73 | 1009.4 |
| 20260902233056 | 86 | 56 | 0.0 | 0.0 | 0.00 | 0.00 | 0.00 | 70 | 1009.4 |
| 20260902231545 | 87 | 57 | 0.0 | 0.0 | 0.00 | 0.00 | 0.00 | 66 | 1009.6 |
| 20260902230050 | 88 | 57 | 0.0 | 1.0 | 0.00 | 0.00 | 0.00 | 65 | 1009.6 |
| 20260902224520 | 88 | 6 | 0.0 | 0.0 | 0.00 | 0.00 | 0.00 | 64 | 1009.6 |
| 20260902223033 | 89 | 6 | 0.0 | 2.0 | 0.00 | 0.00 | 0.00 | 61 | 1009.5 |
| 20260902221502 | 90 | 70 | 0.0 | 1.0 | 0.00 | 0.00 | 0.00 | 60 | 1009.5 |
| 20260902220002 | 91 | 57 | 0.0 | 2.0 | 0.00 | 0.00 | 0.00 | 59 | 1009.6 |
| 20260902214548 | 92 | 273 | 0.0 | 1.0 | 0.00 | 0.00 | 0.00 | 58 | 1009.6 |
| 20260902213042 | 93 | 57 | 0.0 | 1.0 | 0.00 | 0.00 | 0.00 | 56 | 1009.7 |
| 20260902211529 | 95 | 360 | 0.0 | 1.0 | 0.00 | 0.00 | 0.00 | 54 | 1009.7 |
| 20260902210024 | 96 | 267 | 0.0 | 1.0 | 0.00 | 0.00 | 0.00 | 53 | 1009.8 |
| 20260902204508 | 96 | 4 | 0.0 | 1.0 | 0.00 | 0.00 | 0.00 | 54 | 1009.7 |
| 20260902203006 | 97 | 236 | 0.0 | 2.0 | 0.00 | 0.00 | 0.00 | 51 | 1009.9 |
| 20260902201553 | 97 | 41 | 0.0 | 6.0 | 0.00 | 0.00 | 0.00 | 52 | 1010.0 |
| 20260902200046 | 97 | 127 | 0.0 | 2.0 | 0.00 | 0.00 | 0.00 | 51 | 1010.1 |
| 20260902194537 | 96 | 115 | 0.0 | 2.0 | 0.00 | 0.00 | 0.00 | 54 | 1010.3 |
| 20260902193024 | 98 | 253 | 1.0 | 4.0 | 0.00 | 0.00 | 0.00 | 49 | 1010.4 |
| 20260902191507 | 98 | 233 | 0.0 | 2.0 | 0.00 | 0.00 | 0.00 | 52 | 1010.6 |
| 20260902190007 | 98 | 272 | 0.0 | 3.0 | 0.00 | 0.00 | 0.00 | 52 | 1010.8 |
| 20260902184549 | 96 | 218 | 0.0 | 2.0 | 0.00 | 0.00 | 0.00 | 56 | 1010.9 |
| 20260902183048 | 97 | 298 | 0.0 | 1.0 | 0.00 | 0.00 | 0.00 | 52 | 1011.1 |
| 20260902181531 | 99 | 118 | 0.0 | 3.0 | 0.00 | 0.00 | 0.00 | 49 | 1011.1 |
| 20260902180029 | 98 | 124 | 0.0 | 5.0 | 0.00 | 0.00 | 0.00 | 52 | 1011.1 |
| 20260902174512 | 99 | 276 | 0.0 | 8.0 | 0.00 | 0.00 | 0.00 | 50 | 1011.3 |
| 20260902173010 | 98 | 155 | 0.0 | 4.0 | 0.00 | 0.00 | 0.00 | 54 | 1011.5 |
| 20260902171552 | 98 | 125 | 1.0 | 4.0 | 0.00 | 0.00 | 0.00 | 52 | 1011.7 |
| 20260902170050 | 97 | 25 | 0.0 | 3.0 | 0.00 | 0.00 | 0.00 | 56 | 1011.9 |
| 20260902164532 | 98 | 94 | 1.0 | 3.0 | 0.00 | 0.00 | 0.00 | 54 | 1011.9 |
| 20260902163028 | 97 | 231 | 0.0 | 2.0 | 0.00 | 0.00 | 0.00 | 57 | 1012.1 |
| 20260902161510 | 95 | 174 | 1.0 | 3.0 | 0.00 | 0.00 | 0.00 | 56 | 1012.4 |